[[{"header":{"parameterUnit":"m.s-1","parameterCategory":1,"la1":30.2991,"la2":30.254,"lo1":-89.0895,"lo2":-89.0444,"dy":0.0017,"dx":0.0017,"nx":28,"ny":28,"refTime":"2024-07-27T09:00:00:Z","depth":0,"parameterNumber":2,"parameterNumberName":"U-component_of_WINDS"},"data":[0,0,0,0,0,0,0,0,0,0,0,0,0,0,0,0,0,0,0,0,0,0,0,0,0,0,0,0,0,0,0,0,0,0,0,0,0,0,0,0,0,0,0,0,0,0,0,0,0,0,0,0,0,0,0,0,0,0,2.5606,2.5606,0,2.5643,2.5643,2.5644,2.5564,2.5561,2.5559,2.5556,2.5596,2.5599,2.5603,0,0,0,0,0,0,0,0,0,0,0,0,0,2.5467,2.547,2.5606,2.5606,2.5607,2.5643,2.5643,2.5644,2.5564,2.5561,2.5558,2.5555,2.5595,2.5599,2.5603,0,0,0,0,0,0,0,0,0,0,0,0,0,2.5518,2.5471,2.5606,2.5572,2.5569,2.5643,2.5643,2.5644,2.5565,2.5561,2.5557,2.5554,2.5593,2.5598,2.5604,2.5713,0,0,2.5619,2.5622,0,0,0,0,0,0,0,0,2.5516,2.5524,2.5576,2.5574,2.5571,2.5595,2.5609,2.5667,2.5566,2.5567,2.5556,2.5552,2.5599,2.5603,2.5619,2.5715,2.5716,2.562,2.5623,2.5625,2.5627,0,0,0,0,0,0,0,2.5512,2.5521,2.562,2.5577,2.5574,2.5554,2.5557,2.5619,2.5604,2.5566,2.5561,2.5566,2.5597,2.5614,2.5619,2.5717,2.562,2.5624,2.5628,2.563,2.5901,2.5905,0,0,0,0,0,0,2.5513,2.5519,2.5619,2.5622,2.5533,2.556,2.5563,2.5591,2.5603,2.5601,2.5569,2.5562,2.5607,2.5613,2.562,2.5746,2.5625,2.563,2.5633,2.5897,2.5902,2.5907,0,0,0,0,0,0,2.551,2.5523,2.5618,2.5569,2.5579,2.5567,2.5598,2.5594,2.5611,2.5605,2.5602,2.5589,2.5604,2.5613,2.5689,2.5746,2.5632,2.5637,2.5892,2.5899,2.5904,2.6,0,0,0,0,0,0,2.5507,2.5522,2.5563,2.557,2.5582,2.5687,2.5602,2.5597,2.562,2.5611,2.5623,2.5622,2.5602,2.5682,2.5695,2.5751,2.5641,2.5887,2.5895,2.5902,2.5992,2.6009,2.6024,0,0,0,0,0,2.5502,2.559,2.5566,2.5578,2.5634,2.569,2.5697,2.5672,2.5625,2.5666,2.5662,2.5621,2.5739,2.5691,2.5704,2.5763,2.5883,2.5893,2.5902,2.5985,2.6006,2.6023,0,0,0,0,0,0,2.5591,2.559,2.5564,2.5657,2.5674,2.5677,2.5728,2.5695,2.5726,2.5717,2.5685,2.5688,2.577,2.5775,2.5722,2.5868,2.5803,2.5816,2.5862,2.5881,2.5897,2.5893,2.5645,0,0,0,0,0,2.5622,2.5667,2.5664,2.5747,2.5757,2.5741,2.5765,2.5743,2.576,2.5767,2.5769,2.5788,2.5828,2.5855,2.5893,2.5993,2.5993,2.604,2.6056,2.6069,2.6079,2.613,2.615,2.5937,2.5937,2.5937,0,0,2.5685,2.569,2.5721,2.5765,2.5776,2.5823,2.5748,2.5802,2.5836,2.5776,2.5847,2.5849,2.5868,2.5956,2.5995,2.5962,2.6139,2.6081,2.6091,2.6095,2.6142,2.6162,2.618,2.5943,2.5942,2.5941,0,0,2.5824,2.5834,2.5902,2.5914,2.5931,2.592,2.5936,2.5944,2.5942,2.6013,2.5968,2.6009,2.6081,2.6094,2.6111,2.6254,2.6217,2.6268,2.6349,2.6399,2.6415,2.643,2.6478,2.6496,2.6278,2.6279,2.6279,0,2.59,2.597,2.5941,2.5997,2.6017,2.5964,2.6031,2.6045,2.6074,2.6089,2.6052,2.6138,2.6147,2.6236,2.6271,2.6287,2.6304,2.6265,2.6415,2.643,2.6443,2.6488,2.6507,2.6284,2.6284,2.6283,2.6283,0,2.6061,2.611,2.6163,2.619,2.6216,2.6279,2.6259,2.6289,2.6266,2.6258,2.633,2.6339,2.6376,2.6396,2.6375,2.6482,2.6461,2.6421,2.6354,2.6469,2.6511,2.6529,2.6293,2.629,2.6289,2.6287,0,0,2.6256,2.6266,2.6286,2.6296,2.6311,2.6348,2.6408,2.6442,2.6467,2.649,2.6537,2.6598,2.656,2.6579,2.6559,2.6603,2.6712,2.6556,2.6556,2.6582,2.6827,2.6855,2.6876,2.6688,2.6692,2.6694,2.6824,0,2.6391,2.6491,2.6467,2.6566,2.6609,2.656,2.6611,2.6626,2.662,2.6657,2.6651,2.6694,2.6642,2.6652,2.6694,2.669,2.676,2.6681,2.6731,2.6733,2.6724,2.6898,2.6928,2.705,2.6841,2.6844,2.6846,0,2.6561,2.6587,2.6691,2.6696,2.6713,2.676,2.6788,2.6824,2.6839,2.6832,2.6853,2.6824,2.6881,2.6817,2.6895,2.6841,2.6861,2.6862,2.6866,2.6867,2.6794,2.6901,2.7089,2.7106,2.6872,2.687,2.6868,0,2.6688,2.675,2.6819,2.683,2.6839,2.6872,2.6878,2.6889,2.6911,2.6937,2.695,2.6984,2.7001,2.7027,2.7007,2.6962,2.7088,2.7022,2.7082,2.7083,2.7109,2.7107,2.7299,2.7127,2.7127,2.7126,2.7126,0,2.6839,2.6903,2.6876,2.6918,2.6988,2.696,2.703,2.703,2.7041,2.7081,2.7042,2.7081,2.7054,2.7091,2.7076,2.7142,2.7151,2.7146,2.7141,2.7148,2.7148,2.7158,2.7147,2.7131,2.713,2.7129,2.7128,0,2.6991,2.6976,2.7047,2.7049,2.7052,2.7103,2.7105,2.7144,2.7136,2.7188,2.7199,2.7186,2.7227,2.7211,2.7256,2.7245,2.7328,2.7314,2.7322,2.7317,2.7377,2.7371,2.758,2.7605,2.742,2.7422,2.7424,0,2.7086,2.7134,2.7142,2.7165,2.7173,2.7213,2.7235,2.7209,2.7233,2.7253,2.729,2.7327,2.7356,2.7424,2.7419,2.7452,2.7436,2.7507,2.7441,2.7445,2.7433,2.7429,2.7432,2.752,2.7522,2.7524,2.7525,0,2.7256,2.7246,2.7278,2.7308,2.7334,2.7357,2.7376,2.7398,2.7373,2.7403,2.7444,2.7466,2.751,2.7547,2.7577,2.7582,2.7549,2.7546,2.7561,2.7567,2.7569,2.7565,2.7355,2.7541,2.7539,2.7538,2.7537,2.7537,2.7381,2.742,2.743,2.7467,2.7479,2.7497,2.7532,2.7529,2.7562,2.7595,2.7579,2.7626,2.7639,2.7675,2.7685,2.7721,2.7693,2.7716,2.7721,2.7726,2.7732,2.7566,2.7727,2.7726,2.7726,2.7726,2.7725,0,2.7545,2.7549,2.7584,2.761,2.7639,2.7606,2.7625,2.7651,2.7693,2.7708,2.7736,2.7782,2.7818,2.7816,2.7849,2.7878,2.7864,2.7887,2.7883,2.7884,2.7757,2.7739,2.7898,2.7898,2.7898,2.7898,2.7898,2.7898,2.7634,2.7697,2.7688,2.7757,2.7761,2.7806,2.7819,2.7835,2.7846,2.79,2.7929,2.7927,2.7934,2.7967,2.7998,2.7997,2.8009,2.8038,2.8031,2.7911,2.7894,2.7877,2.786,2.8042,2.8042,2.8154,2.8155,2.8156]},{"header":{"parameterUnit":"m.s-1","parameterCategory":1,"la1":30.2991,"la2":30.254,"lo1":-89.0895,"lo2":-89.0444,"dy":0.0017,"dx":0.0017,"nx":28,"ny":28,"refTime":"2024-07-27T09:00:00:Z","depth":0,"parameterNumber":3,"parameterNumberName":"V-component_of_WINDS"},"data":[0,0,0,0,0,0,0,0,0,0,0,0,0,0,0,0,0,0,0,0,0,0,0,0,0,0,0,0,0,0,0,0,0,0,0,0,0,0,0,0,0,0,0,0,0,0,0,0,0,0,0,0,0,0,0,0,0,0,3.2547,3.2549,0,3.2761,3.2763,3.2766,3.2801,3.2799,3.2798,3.2796,3.301,3.3018,3.3025,0,0,0,0,0,0,0,0,0,0,0,0,0,3.2162,3.2169,3.2546,3.2549,3.2552,3.276,3.2763,3.2766,3.2802,3.2799,3.2797,3.2795,3.3008,3.3017,3.3026,0,0,0,0,0,0,0,0,0,0,0,0,0,3.2348,3.2171,3.2546,3.2595,3.2601,3.276,3.2764,3.2767,3.2802,3.2799,3.2796,3.2794,3.3005,3.3016,3.3027,3.3151,0,0,3.3061,3.3066,0,0,0,0,0,0,0,0,3.2337,3.2362,3.2585,3.2592,3.2599,3.2752,3.2707,3.2896,3.2803,3.2726,3.2796,3.2793,3.2926,3.2944,3.299,3.3161,3.317,3.3062,3.3069,3.3073,3.3077,0,0,0,0,0,0,0,3.2324,3.2353,3.2631,3.2588,3.2597,3.2604,3.2627,3.2743,3.2839,3.2732,3.2735,3.276,3.293,3.2979,3.2995,3.3173,3.3062,3.3072,3.3078,3.3083,3.3454,3.3457,0,0,0,0,0,0,3.2303,3.2342,3.2624,3.2638,3.2459,3.2613,3.2639,3.2705,3.2837,3.2855,3.2762,3.2761,3.2961,3.2982,3.3003,3.3156,3.3073,3.3084,3.309,3.3451,3.3455,3.3458,0,0,0,0,0,0,3.2295,3.2328,3.2616,3.2491,3.2528,3.2623,3.2697,3.2711,3.2761,3.2861,3.2877,3.2796,3.296,3.2987,3.3114,3.3163,3.3089,3.3099,3.3447,3.3452,3.3457,3.3462,0,0,0,0,0,0,3.2284,3.2325,3.2374,3.2492,3.2534,3.2725,3.27,3.2717,3.278,3.2781,3.2896,3.2913,3.296,3.3097,3.3125,3.3177,3.3108,3.3443,3.345,3.3455,3.3458,3.3467,3.3474,0,0,0,0,0,3.227,3.2367,3.2377,3.2411,3.2599,3.2728,3.2752,3.2806,3.2784,3.2834,3.2897,3.2909,3.3153,3.3109,3.3141,3.3198,3.344,3.3448,3.3455,3.3454,3.3465,3.3474,0,0,0,0,0,0,3.2252,3.2383,3.2396,3.2534,3.2619,3.2733,3.2798,3.2815,3.2908,3.2904,3.2965,3.2991,3.3114,3.3169,3.3117,3.3324,3.3295,3.3309,3.3284,3.3295,3.3302,3.3286,3.3117,0,0,0,0,0,3.2264,3.236,3.2469,3.258,3.2622,3.2702,3.2761,3.2795,3.2885,3.2921,3.2995,3.308,3.3176,3.3239,3.3333,3.3466,3.349,3.352,3.3528,3.3534,3.3545,3.3618,3.3632,3.3482,3.3482,3.3482,0,0,3.229,3.2374,3.243,3.2578,3.2649,3.2744,3.2733,3.2835,3.2906,3.2936,3.3061,3.3117,3.3217,3.3347,3.3408,3.3396,3.3592,3.3543,3.3547,3.3556,3.3627,3.3641,3.3654,3.3487,3.3486,3.3485,0,0,3.2386,3.246,3.256,3.2631,3.2738,3.279,3.2814,3.2926,3.2965,3.3091,3.3115,3.3199,3.3364,3.3434,3.3491,3.3612,3.3625,3.364,3.3682,3.3752,3.3764,3.3775,3.3817,3.3831,3.3651,3.3651,3.3651,0,3.2405,3.2552,3.2609,3.271,3.2774,3.2807,3.2907,3.2973,3.3104,3.3146,3.3132,3.3338,3.3408,3.3554,3.3583,3.3629,3.3656,3.3628,3.3758,3.3769,3.378,3.3821,3.3837,3.3652,3.3652,3.3652,3.3652,0,3.2568,3.267,3.2737,3.2865,3.2936,3.3036,3.3106,3.3171,3.3199,3.3252,3.3378,3.3463,3.3574,3.3611,3.3638,3.3761,3.375,3.3746,3.3718,3.3795,3.3834,3.385,3.3654,3.3653,3.3653,3.3653,0,0,3.266,3.2817,3.2841,3.2899,3.3019,3.3097,3.3198,3.3308,3.3361,3.345,3.3535,3.3673,3.367,3.3734,3.377,3.3831,3.392,3.382,3.3823,3.3835,3.4058,3.406,3.4078,3.393,3.3933,3.3935,3.405,0,3.277,3.2953,3.3006,3.3159,3.3252,3.3284,3.3372,3.3453,3.3505,3.359,3.3647,3.3744,3.3733,3.3771,3.3834,3.3896,3.3966,3.3889,3.4007,3.4011,3.3981,3.4099,3.4102,3.4205,3.4065,3.4068,3.407,0,3.2923,3.3016,3.3179,3.3285,3.3326,3.3404,3.3509,3.359,3.3683,3.3716,3.3787,3.3817,3.3921,3.3887,3.4031,3.3977,3.4028,3.4066,3.4071,3.4084,3.4045,3.4114,3.424,3.4255,3.4095,3.4093,3.4091,0,3.2972,3.3138,3.3257,3.3305,3.3433,3.3486,3.3542,3.3632,3.3694,3.3784,3.3825,3.3925,3.398,3.4057,3.4112,3.4082,3.4249,3.4221,3.4279,3.4277,3.4312,3.4309,3.4448,3.4346,3.4346,3.4345,3.4345,0,3.3089,3.3187,3.328,3.3353,3.3463,3.3522,3.3629,3.3685,3.3764,3.3847,3.388,3.3957,3.4025,3.411,3.4154,3.4265,3.4289,3.4318,3.4328,3.4315,3.4311,3.4349,3.4343,3.435,3.4349,3.4348,3.4347,0,3.3163,3.323,3.3361,3.3471,3.3501,3.3577,3.367,3.3741,3.3793,3.3898,3.3925,3.4008,3.4109,3.4172,3.4301,3.433,3.4452,3.446,3.4421,3.4426,3.448,3.4474,3.4648,3.4673,3.4554,3.4555,3.4556,0,3.3233,3.3309,3.3428,3.3486,3.3543,3.3636,3.37,3.376,3.3825,3.3935,3.3992,3.4096,3.4183,3.4344,3.4414,3.4512,3.4522,3.4576,3.4537,3.452,3.4522,3.4516,3.4524,3.4582,3.4583,3.4584,3.4585,0,3.335,3.3379,3.3471,3.3574,3.3649,3.3733,3.3816,3.3861,3.3935,3.4006,3.4111,3.4178,3.431,3.4412,3.4516,3.4571,3.459,3.4596,3.4615,3.4602,3.4576,3.459,3.4438,3.4592,3.4591,3.4591,3.4591,3.459,3.3424,3.3493,3.3587,3.3687,3.3756,3.3833,3.3905,3.3966,3.4056,3.4169,3.4198,3.4308,3.4396,3.4538,3.4595,3.4681,3.4672,3.4699,3.4706,3.4712,3.4712,3.4563,3.47,3.4699,3.4699,3.4699,3.4699,0,3.3542,3.3604,3.3696,3.3812,3.389,3.3902,3.3994,3.4059,3.4155,3.4237,3.4322,3.4442,3.4541,3.4618,3.472,3.4773,3.4784,3.4797,3.4794,3.4806,3.4714,3.4688,3.4786,3.4786,3.4786,3.4786,3.4786,3.4786,3.3613,3.3729,3.3769,3.3919,3.398,3.4089,3.4141,3.4211,3.4276,3.4409,3.4492,3.4543,3.4622,3.4729,3.482,3.484,3.4876,3.4887,3.4909,3.4822,3.4812,3.4803,3.4779,3.4895,3.4895,3.4993,3.4994,3.4995]}]]